Wind_Speed
7 6 5 4 3 3 4 4 5 5 6 6 6 7 7 7 9 9 9 4 4 2 2 1 4 7 9 3 2 1 3 2 4 5 3 8 4 6 4 4 6 8 4 5 24
7 6 5 5 4 4 4 4 4 5 5 6 7 7 8 8 9 12 6 7 7 6 4 1 6 9 5 2 1 3 3 6 5 3 4 10 7 9 4 5 4 7 4 16 26
8 7 6 5 5 4 5 5 4 4 4 5 6 6 7 7 8 5 4 10 11 9 6 3 6 6 3 5 2 3 4 4 7 14 5 6 9 9 5 3 12 21 19 26 27
9 8 7 6 6 5 5 5 5 4 4 5 5 6 6 4 3 3 6 11 12 10 6 3 5 4 4 4 4 3 9 9 7 11 4 6 7 5 13 0 6 17 21 27 27
10 9 8 7 6 6 6 6 6 5 5 5 5 5 5 5 8 5 3 8 12 10 6 3 5 2 3 7 11 4 5 8 14 9 9 7 7 3 9 6 8 17 23 25 26
10 10 9 8 8 7 6 7 6 6 6 6 6 6 5 4 7 11 3 5 10 11 9 5 1 5 4 5 0 9 14 17 7 11 7 8 2 2 2 7 14 21 27 27 26
11 11 10 10 9 8 7 7 6 6 6 6 6 7 10 12 7 11 9 6 8 11 10 4 3 2 7 7 7 9 6 7 1 4 3 8 1 6 9 18 23 27 29 29 28
11 10 10 10 9 8 8 8 6 6 5 6 6 7 7 3 10 12 11 5 7 9 6 3 2 6 2 8 7 4 4 5 5 3 3 7 6 6 17 24 23 28 30 32 30
12 11 10 9 9 8 8 7 6 5 5 5 5 6 5 3 11 13 11 6 3 5 5 3 3 1 2 3 5 7 2 5 7 7 4 4 7 5 22 27 25 25 24 29 29
14 13 12 10 8 7 7 6 5 5 6 6 8 4 2 2 7 14 12 9 2 2 3 3 2 3 4 5 2 4 5 5 6 3 6 7 12 5 23 25 30 29 29 31 30
16 14 12 11 8 6 6 4 3 3 10 6 1 1 3 6 4 13 15 10 5 1 2 4 4 5 9 6 3 3 3 5 18 10 8 13 13 12 19 17 15 25 30 31 37
16 13 12 10 7 6 7 4 2 1 6 10 18 19 15 13 2 7 16 8 4 3 3 6 5 9 1 3 4 3 5 10 12 4 6 0 12 9 11 14 22 24 26 35 33
17 13 9 7 5 6 7 4 3 5 1 4 6 10 7 5 5 12 16 10 3 4 4 6 6 6 3 3 4 5 5 5 7 4 3 2 8 5 4 12 10 17 15 21 28
15 10 6 3 2 4 7 2 7 8 4 3 3 3 9 6 2 13 16 10 2 9 8 5 5 5 4 6 7 5 8 10 5 1 4 3 5 5 3 6 7 21 22 19 22
10 5 4 6 8 7 1 3 9 5 4 1 3 3 11 8 5 12 16 13 5 4 5 7 3 4 3 6 5 9 4 1 3 1 3 3 2 8 3 5 6 15 27 28 26
8 4 2 8 9 5 3 12 4 5 3 1 6 5 4 3 1 3 7 9 1 4 2 7 3 5 8 5 7 3 4 6 4 3 3 1 2 6 3 5 5 4 19 28 29
7 4 4 10 9 4 6 7 5 4 3 2 3 4 3 2 1 2 5 4 4 2 4 6 5 4 4 1 2 5 6 3 4 5 5 1 0 8 9 7 5 9 10 17 28
8 6 6 10 9 5 6 4 5 2 4 4 3 4 5 6 4 3 4 2 2 5 2 2 8 3 4 7 8 7 8 6 4 3 6 2 4 5 4 10 12 14 6 7 17
5 7 7 6 6 5 2 3 3 2 3 4 2 4 2 3 2 2 6 6 8 10 8 4 6 3 6 5 7 3 4 3 7 3 3 3 7 7 4 10 14 16 12 3 13
5 10 7 7 6 3 4 4 3 5 5 1 3 2 2 2 0 2 5 0 4 10 6 5 5 3 5 5 2 5 6 4 3 1 3 5 5 5 11 11 11 11 15 11 6
3 5 4 8 4 1 2 5 5 9 7 1 2 3 2 0 1 1 2 1 4 5 11 5 4 10 4 2 3 1 1 7 5 4 4 1 6 7 7 7 7 9 9 8 6
3 3 8 5 3 2 1 3 6 6 8 3 4 4 3 1 2 2 1 3 15 3 4 4 5 3 5 4 3 2 4 4 5 3 2 3 6 5 7 8 11 10 3 5 3
4 5 5 3 3 3 6 4 2 8 6 6 4 5 4 3 1 4 4 3 15 7 3 2 1 2 7 7 3 2 3 5 5 3 5 5 6 3 7 12 14 12 5 2 4
2 2 2 2 4 2 4 4 5 7 5 6 4 6 5 5 4 2 5 3 12 8 6 4 2 4 7 6 3 2 3 3 4 4 5 6 6 7 7 7 15 9 9 7 5
5 3 2 1 3 3 1 2 3 6 5 12 4 4 2 2 4 2 1 6 4 6 5 4 1 1 4 6 4 5 5 7 6 4 6 5 8 8 7 8 13 13 16 13 5
5 4 3 2 4 0 3 3 3 5 3 4 2 2 0 3 6 3 2 3 6 2 2 2 2 1 5 3 6 5 6 7 5 2 6 1 6 2 20 13 14 19 22 9 12
11 7 3 5 4 2 1 3 3 3 2 3 4 1 1 2 7 12 16 15 10 3 2 2 4 2 4 2 6 5 6 5 4 3 2 5 5 7 8 13 19 24 21 14 12
Wind_Direction
358 357 352 345 329 310 294 289 286 281 282 282 280 277 275 274 276 275 256 251 249 201 29 325 16 3 344 345 265 179 60 281 254 187 244 157 155 178 225 159 135 183 241 202 164
355 347 342 334 325 307 296 287 283 284 287 285 282 280 280 279 275 264 259 238 249 254 272 348 8 7 345 338 270 120 126 229 218 210 199 185 184 182 176 135 181 171 195 164 168
352 344 336 330 321 306 294 284 282 280 286 289 285 282 281 285 291 267 207 213 227 245 261 333 14 21 8 339 269 202 216 223 237 221 199 165 185 174 171 196 202 186 170 168 173
344 340 334 326 317 309 294 282 276 277 283 288 291 286 279 260 201 162 196 202 214 227 240 316 13 15 360 316 300 279 270 246 318 211 176 168 163 195 207 234 250 205 191 176 179
333 329 327 323 316 309 299 286 276 274 279 289 295 289 277 242 233 175 106 196 207 215 229 274 19 21 342 315 331 179 293 313 246 223 219 167 188 226 226 271 164 175 182 182 184
330 320 317 315 312 306 299 286 277 273 277 285 291 288 270 252 226 218 183 162 193 212 227 246 35 329 303 272 172 304 297 294 269 202 194 168 189 223 215 183 163 179 184 191 192
332 322 310 307 306 307 301 292 280 268 269 279 286 285 271 248 203 194 174 183 200 221 233 252 291 319 321 308 336 286 318 329 120 195 222 151 188 227 198 176 171 180 192 199 200
331 322 311 302 299 302 301 298 287 275 266 268 279 289 258 223 209 173 172 160 202 198 211 242 314 302 255 307 322 357 43 14 300 144 230 162 258 218 184 181 179 186 194 199 211
330 322 314 303 292 292 294 299 288 269 265 269 279 287 271 222 197 183 176 172 137 180 189 232 298 256 10 24 2 9 335 316 323 213 134 189 271 227 191 190 193 199 201 208 213
328 320 312 303 286 273 278 292 274 263 250 257 260 299 44 54 196 192 189 196 185 41 150 184 141 63 44 64 246 292 321 304 255 272 182 211 251 240 207 195 199 202 211 214 215
328 319 311 302 285 259 257 264 251 257 230 215 195 228 344 58 154 194 205 207 218 124 89 35 68 244 237 202 207 268 253 259 288 270 224 225 240 222 215 214 208 212 215 213 220
325 315 307 297 278 241 229 217 237 257 303 260 247 256 262 267 274 171 195 178 155 188 91 12 265 244 194 194 219 234 290 281 277 316 170 181 262 251 198 215 207 208 224 225 227
323 314 299 288 269 236 232 213 238 240 300 283 245 243 237 200 194 178 184 181 150 132 175 170 235 104 154 261 248 217 198 257 229 340 314 337 293 281 240 200 193 214 228 221 225
323 308 287 267 230 153 128 203 233 219 56 277 261 212 171 142 225 191 194 182 195 197 160 222 254 230 189 211 172 301 214 247 277 209 266 25 285 298 323 270 222 237 231 235 223
337 310 247 181 131 124 73 156 145 163 64 236 169 148 170 169 143 197 202 206 188 179 122 245 227 205 263 245 154 237 30 70 26 51 357 14 45 271 345 283 254 239 237 238 216
4 15 159 165 141 113 81 142 131 42 51 116 135 143 140 230 93 109 171 200 133 167 253 243 254 192 214 253 181 140 62 40 51 48 9 340 128 293 348 289 316 239 241 226 218
23 39 122 143 153 122 125 156 46 98 340 159 165 146 129 128 266 100 151 180 193 74 334 314 254 263 180 307 66 83 66 341 343 358 230 287 148 250 298 306 242 292 269 233 219
28 45 124 149 155 132 150 42 69 280 279 339 96 95 150 167 216 135 95 234 259 99 60 292 330 206 170 189 199 189 155 156 222 232 277 272 252 261 236 321 331 350 284 238 220
33 70 119 144 159 147 158 54 221 242 268 336 43 81 354 13 196 133 183 204 209 165 181 169 272 283 216 175 141 161 168 183 103 23 32 267 296 294 306 345 2 4 27 313 233
54 86 86 119 125 117 76 240 251 222 313 16 103 73 115 318 321 164 198 204 276 192 167 222 295 226 295 101 49 177 159 71 17 160 273 298 291 247 330 321 331 346 1 9 235
94 93 74 141 126 63 145 238 280 295 265 286 113 86 121 115 175 254 226 66 353 324 171 152 148 274 344 6 201 77 323 53 113 116 167 299 281 218 262 282 288 297 334 6 62
75 63 131 119 52 38 195 204 316 321 11 20 78 84 82 65 339 32 17 22 351 258 159 208 152 238 254 293 207 189 155 128 121 211 103 143 273 236 233 259 266 285 310 354 48
74 90 138 21 87 338 320 308 308 3 10 12 39 36 38 68 5 36 345 341 10 29 69 185 276 360 351 348 6 67 86 109 105 89 188 139 264 317 288 294 285 274 276 225 206
85 70 87 121 78 104 15 341 335 19 49 56 34 49 47 35 17 327 335 319 346 3 354 158 116 174 199 218 184 197 178 147 112 123 176 222 276 298 279 279 297 308 288 296 249
43 65 63 328 19 43 84 324 339 9 25 31 40 68 88 11 341 302 307 322 325 11 26 79 104 346 271 258 263 216 205 178 186 187 165 255 205 260 286 289 297 318 314 278 272
59 33 26 37 326 14 1 13 22 330 360 354 84 315 253 210 207 251 208 202 232 319 71 357 270 211 337 354 341 286 228 187 209 161 280 242 273 285 314 303 304 346 353 310 297
36 23 13 7 0 71 314 315 332 328 182 54 285 168 211 260 275 264 264 260 248 224 212 206 158 73 257 335 329 299 249 213 131 92 126 205 248 330 313 323 12 1 6 354 335
Height
1518 1517 1517 1516 1515 1515 1514 1514 1514 1514 1514 1514 1514 1514 1514 1515 1515 1515 1515 1517 1517 1518 1519 1519 1519 1519 1519 1519 1519 1519 1529 1535 1525 1524 1515 1514 1515 1516 1517 1518 1520 1522 1522 1524 1527
1518 1517 1516 1515 1515 1514 1514 1513 1513 1513 1513 1513 1513 1513 1513 1513 1513 1513 1515 1515 1515 1517 1518 1519 1519 1519 1519 1519 1519 1520 1531 1523 1513 1511 1512 1512 1514 1515 1517 1518 1520 1522 1522 1524 1527
1518 1517 1516 1515 1514 1514 1513 1513 1512 1512 1512 1512 1512 1512 1512 1512 1512 1510 1511 1513 1513 1515 1517 1518 1519 1519 1519 1520 1519 1519 1523 1512 1507 1507 1509 1511 1514 1515 1516 1519 1516 1516 1520 1523 1527
1518 1516 1515 1514 1513 1512 1512 1511 1511 1511 1511 1511 1511 1510 1511 1512 1516 1509 1510 1511 1513 1514 1516 1517 1518 1518 1519 1520 1518 1519 1511 1510 1507 1507 1509 1511 1512 1513 1513 1513 1513 1514 1517 1520 1525
1517 1516 1514 1513 1512 1511 1510 1510 1510 1510 1510 1510 1510 1509 1510 1511 1508 1509 1509 1510 1511 1514 1516 1517 1519 1519 1521 1519 1516 1514 1510 1507 1505 1507 1509 1510 1511 1513 1512 1512 1513 1515 1518 1520 1524
1515 1514 1513 1512 1511 1510 1509 1508 1508 1509 1509 1509 1509 1508 1509 1510 1506 1507 1509 1510 1512 1514 1516 1517 1519 1520 1519 1518 1518 1513 1509 1506 1503 1504 1507 1510 1512 1513 1512 1511 1513 1515 1518 1521 1523
1513 1512 1511 1510 1509 1508 1507 1507 1507 1507 1508 1508 1508 1507 1507 1504 1504 1505 1509 1510 1511 1514 1515 1518 1519 1520 1519 1516 1515 1512 1513 1506 1505 1506 1509 1509 1514 1512 1510 1510 1508 1511 1516 1519 1521
1512 1511 1509 1508 1507 1507 1506 1505 1505 1506 1506 1507 1507 1507 1502 1501 1503 1505 1508 1510 1510 1512 1516 1517 1518 1519 1519 1517 1515 1514 1516 1526 1507 1506 1508 1511 1519 1505 1506 1508 1511 1511 1513 1514 1519
1510 1508 1507 1506 1505 1505 1504 1504 1504 1504 1505 1505 1506 1506 1501 1501 1503 1505 1508 1510 1511 1512 1515 1516 1518 1518 1518 1522 1528 1526 1533 1526 1517 1505 1507 1511 1512 1503 1503 1505 1508 1511 1513 1514 1516
1508 1506 1504 1503 1503 1503 1503 1503 1502 1503 1503 1504 1504 1507 1501 1501 1502 1505 1507 1509 1510 1512 1514 1515 1516 1520 1525 1531 1549 1536 1534 1526 1525 1508 1505 1507 1505 1502 1500 1501 1501 1506 1509 1511 1512
1505 1503 1501 1500 1500 1500 1502 1502 1505 1505 1501 1499 1500 1499 1499 1501 1501 1503 1506 1509 1511 1512 1516 1516 1524 1530 1525 1524 1523 1526 1529 1530 1509 1500 1506 1503 1499 1497 1496 1502 1503 1503 1504 1507 1508
1502 1500 1498 1497 1497 1498 1499 1500 1501 1502 1499 1496 1497 1497 1498 1500 1502 1502 1505 1509 1511 1516 1516 1523 1529 1516 1517 1518 1522 1525 1529 1523 1508 1497 1500 1501 1501 1492 1492 1492 1497 1500 1500 1502 1506
1498 1496 1495 1494 1495 1496 1497 1500 1500 1501 1500 1495 1494 1495 1497 1499 1500 1501 1504 1507 1510 1517 1519 1527 1517 1512 1515 1516 1521 1524 1527 1520 1516 1503 1502 1503 1505 1493 1486 1489 1493 1493 1494 1497 1500
1494 1492 1492 1493 1496 1495 1497 1498 1498 1500 1510 1498 1494 1493 1496 1497 1500 1501 1503 1507 1509 1515 1518 1519 1510 1511 1514 1518 1517 1525 1508 1506 1509 1511 1527 1507 1533 1498 1489 1487 1487 1487 1488 1491 1494
1491 1490 1490 1492 1493 1495 1498 1496 1497 1500 1529 1494 1493 1494 1494 1498 1498 1499 1502 1505 1508 1510 1514 1515 1507 1510 1512 1507 1506 1513 1503 1505 1508 1515 1517 1518 1530 1503 1493 1488 1484 1479 1479 1483 1489
1490 1489 1489 1492 1495 1496 1496 1497 1499 1514 1519 1494 1490 1494 1497 1496 1497 1498 1501 1505 1506 1508 1509 1508 1503 1503 1502 1497 1500 1501 1506 1512 1520 1526 1538 1522 1522 1510 1498 1490 1482 1479 1476 1478 1483
1491 1490 1490 1493 1496 1497 1497 1499 1514 1522 1494 1495 1494 1493 1496 1499 1498 1498 1503 1508 1516 1523 1524 1510 1502 1495 1495 1501 1500 1506 1520 1548 1543 1549 1543 1527 1526 1510 1490 1481 1477 1474 1473 1472 1478
1492 1491 1492 1494 1496 1498 1499 1503 1515 1498 1498 1488 1491 1494 1500 1497 1498 1500 1507 1514 1508 1514 1527 1528 1527 1494 1492 1495 1503 1509 1515 1543 1547 1554 1542 1523 1525 1499 1484 1480 1476 1472 1470 1471 1475
1493 1493 1494 1496 1497 1499 1501 1520 1513 1502 1494 1493 1492 1499 1500 1496 1498 1500 1506 1510 1502 1503 1523 1528 1520 1491 1489 1487 1492 1505 1517 1507 1536 1544 1545 1530 1509 1487 1483 1477 1476 1474 1471 1473 1474
1493 1494 1496 1498 1499 1501 1504 1515 1505 1496 1492 1491 1499 1497 1506 1503 1503 1504 1506 1498 1497 1495 1496 1507 1522 1493 1486 1486 1490 1493 1498 1519 1532 1537 1541 1533 1522 1515 1490 1485 1480 1474 1471 1470 1470
1494 1495 1498 1499 1501 1501 1513 1511 1501 1492 1492 1492 1495 1500 1502 1502 1504 1506 1504 1500 1496 1495 1495 1502 1511 1498 1494 1493 1496 1500 1505 1516 1523 1535 1545 1549 1528 1494 1491 1486 1482 1475 1472 1469 1467
1494 1498 1500 1501 1503 1507 1508 1504 1499 1494 1492 1491 1492 1495 1500 1502 1503 1503 1504 1500 1497 1495 1499 1498 1513 1519 1500 1487 1487 1489 1497 1505 1526 1527 1543 1542 1527 1481 1483 1482 1479 1474 1470 1469 1468
1496 1499 1502 1503 1512 1511 1505 1502 1500 1497 1497 1495 1498 1498 1499 1505 1507 1506 1505 1498 1497 1496 1499 1497 1512 1526 1513 1501 1488 1492 1495 1506 1513 1521 1534 1537 1521 1480 1481 1480 1479 1478 1474 1470 1469
1498 1503 1503 1504 1507 1509 1511 1508 1504 1500 1501 1500 1502 1500 1503 1509 1508 1508 1507 1500 1498 1497 1497 1496 1511 1511 1524 1508 1498 1497 1492 1497 1503 1523 1526 1524 1504 1486 1479 1479 1474 1478 1477 1476 1471
1500 1508 1509 1511 1510 1510 1511 1510 1508 1507 1503 1503 1505 1506 1507 1511 1511 1509 1507 1505 1499 1498 1496 1499 1510 1505 1501 1500 1495 1490 1490 1496 1501 1502 1507 1501 1504 1486 1481 1478 1473 1475 1477 1476 1475
1506 1510 1510 1510 1510 1510 1512 1513 1511 1509 1507 1507 1508 1507 1506 1509 1507 1508 1506 1507 1505 1499 1499 1501 1509 1506 1504 1496 1498 1494 1486 1490 1493 1496 1499 1495 1499 1485 1479 1475 1473 1475 1473 1473 1475
1512 1512 1512 1513 1512 1513 1515 1512 1510 1509 1507 1506 1505 1506 1507 1506 1504 1502 1500 1498 1497 1499 1501 1503 1506 1511 1514 1501 1501 1506 1492 1486 1488 1493 1494 1500 1490 1486 1480 1477 1480 1477 1477 1477 1476